Dewpoint
58 58 58 57 56 56 54 53 49 46 42 39 40 43 43 39 38 37 38 38 37 37 37 37 36 36 35 35 35 34 32 31 29 25 23 23 23 22 21 21 18 18 19
57 56 56 56 54 54 52 51 49 45 42 41 42 41 39 38 36 39 38 35 35 36 36 36 35 33 36 35 34 33 31 30 27 23 21 20 21 22 22 20 14 14 19
54 53 53 53 51 51 50 48 45 43 41 40 39 38 38 38 39 38 39 36 35 35 36 35 35 35 34 33 33 31 29 25 25 22 20 20 20 20 18 16 14 19 14
50 49 49 49 49 48 45 44 43 41 39 39 40 40 39 37 39 38 35 34 34 34 35 35 34 34 33 33 31 29 27 24 22 20 19 18 19 18 17 12 13 14 14
48 48 47 45 44 43 41 40 40 39 38 38 39 40 41 41 39 38 38 37 37 35 35 34 35 35 35 33 27 27 25 23 21 20 18 18 17 16 12 12 14 14 16
46 44 42 41 40 39 38 38 39 39 39 40 40 40 41 40 39 38 38 37 33 32 33 34 34 33 33 32 32 30 25 24 24 21 20 18 17 17 14 14 15 15 13
43 41 40 38 37 37 38 38 39 40 41 41 41 41 40 40 37 36 35 32 33 33 33 32 31 27 29 27 29 31 30 27 25 24 23 20 21 16 13 15 16 16 16
40 39 37 36 36 37 39 40 40 41 40 40 40 40 39 36 34 34 34 33 32 32 32 32 32 30 27 26 25 30 26 25 25 22 21 21 20 15 17 18 20 19 16
36 35 35 37 37 39 39 40 41 40 40 39 38 36 34 33 33 32 32 32 31 31 30 30 29 28 28 29 32 29 24 23 24 25 24 24 23 22 23 21 21 18 19
37 37 37 39 39 40 40 39 38 36 34 33 32 33 33 32 33 33 32 33 33 32 31 29 29 28 29 30 32 30 27 23 21 20 20 21 21 21 23 21 19 20 18
38 39 40 40 39 38 36 34 33 32 32 33 32 32 32 32 31 32 32 32 33 32 31 30 30 29 30 30 30 33 30 26 24 22 20 17 15 17 19 19 19 20 19
36 34 32 32 31 31 32 32 31 31 31 31 34 32 32 32 31 31 32 32 32 34 32 32 32 31 31 30 31 32 30 28 27 26 25 21 21 21 20 19 20 20 19
30 30 30 30 29 29 29 29 29 29 30 30 30 31 30 31 32 31 31 31 32 33 34 33 32 31 31 30 30 31 31 29 29 27 25 23 23 21 21 22 21 21 20
30 30 30 30 29 29 28 28 28 29 28 27 27 27 28 28 30 30 32 33 32 32 32 34 33 31 31 31 30 32 32 32 29 28 26 24 24 24 24 23 22 21 20
28 27 26 25 23 21 19 21 21 22 26 24 24 23 27 27 26 27 27 28 30 30 32 33 33 31 30 30 29 30 30 30 29 29 27 25 24 23 23 23 22 21 19
21 19 20 20 20 18 17 16 21 22 22 21 21 23 24 23 21 22 22 24 27 28 29 29 30 32 30 29 28 27 27 28 28 28 28 26 24 23 23 23 22 21 19
17 17 18 19 18 18 18 17 17 18 18 19 18 19 19 20 20 20 21 23 26 27 28 27 30 32 30 29 27 25 26 28 29 27 27 26 26 24 24 23 23 21 19
18 20 17 18 19 18 17 17 17 17 17 17 16 16 16 17 18 19 20 20 24 25 25 29 30 32 31 29 28 27 27 27 27 27 27 27 27 25 24 23 21 21 20
15 15 17 18 18 16 16 15 15 14 14 13 13 13 13 14 16 16 17 17 17 16 19 26 30 31 31 30 30 30 28 28 28 27 27 26 25 23 24 23 22 19 18
14 15 13 14 14 13 12 12 11 12 11 11 11 11 11 11 13 14 15 16 15 14 17 16 17 30 32 31 31 30 29 29 27 26 27 27 25 25 24 23 23 23 19
12 11 11 11 11 10 10 10 9 10 9 9 9 10 7 9 10 11 11 12 12 12 14 14 17 18 22 31 30 30 28 28 27 26 26 25 25 23 24 24 24 22 20
10 8 9 9 9 8 6 7 8 6 5 5 6 6 5 9 8 8 10 9 11 11 12 12 13 15 16 17 22 28 27 27 27 27 26 25 23 23 23 23 23 23 20
8 7 6 5 6 4 5 3 4 4 3 4 4 4 5 6 6 5 8 7 8 9 10 10 11 11 13 14 16 21 23 26 28 29 26 25 24 24 23 23 22 21 21
5 6 4 5 4 2 2 2 2 -0 -0 1 3 3 2 3 4 4 5 5 5 6 7 9 9 10 10 11 13 17 21 20 23 27 28 27 25 24 24 23 23 21 21
6 5 4 4 2 1 0 -0 -0 -0 -0 -0 0 1 0 1 1 2 3 3 2 3 3 5 7 8 8 8 10 12 13 12 18 22 26 28 27 25 24 23 23 22 20
5 3 3 3 2 0 -1 -2 -2 -3 -3 -2 -2 -1 -1 -1 -1 0 0 0 0 -1 1 3 4 4 6 8 10 11 8 9 14 17 22 25 27 25 24 23 22 22 19
Lifted_Index
-3 -3 -3 -2 -2 -2 -1 -1 -1 -0 -0 1 2 4 6 7 8 9 9 9 9 10 11 12 12 11 11 11 11 11 11 10 10 9 9 9 9 10 10 10 11 11 11
-3 -3 -2 -2 -2 -1 -1 -1 -1 -0 -0 1 3 5 7 8 9 9 9 8 9 11 11 11 11 11 11 11 11 11 10 10 9 8 8 9 9 10 10 10 10 10 10
-3 -2 -2 -1 -1 -1 -1 -0 -0 0 1 2 4 7 8 9 9 9 8 9 10 11 11 11 11 11 10 10 10 10 9 9 8 8 8 9 9 9 10 10 10 10 10
-2 -2 -1 -1 -0 -0 0 0 1 2 3 4 6 8 9 9 9 8 9 10 11 11 11 11 10 10 10 9 9 9 8 8 7 7 8 9 9 9 9 9 9 9 9
-1 -1 -0 -0 0 1 1 2 3 5 6 8 9 9 9 9 8 9 10 11 11 12 11 11 10 10 9 8 8 7 7 7 7 7 8 9 9 9 9 9 9 8 8
1 1 1 1 2 2 3 4 6 7 9 9 9 9 8 8 9 10 11 11 12 12 11 10 10 9 8 8 7 6 6 6 7 7 8 9 9 9 9 9 8 8 7
3 3 3 3 3 4 5 6 8 9 9 9 9 8 8 9 10 11 12 12 12 12 11 10 9 9 8 7 6 6 6 6 7 8 9 9 9 9 9 9 8 8 8
4 4 4 5 5 6 7 8 9 9 9 9 9 9 9 11 12 13 13 13 12 12 11 10 9 8 7 7 6 5 6 6 8 8 9 9 9 9 9 9 9 8 8
6 6 6 6 7 7 8 8 9 9 9 9 10 11 11 12 13 13 13 12 12 11 11 10 9 8 7 6 6 5 6 7 8 8 8 8 9 9 9 9 9 8 8
7 7 8 8 8 8 9 9 10 10 11 11 12 13 13 13 13 13 12 12 12 11 11 10 9 7 6 6 6 6 6 6 7 8 8 8 9 9 9 9 9 8 8
8 9 9 10 10 10 10 11 12 12 13 13 14 14 14 14 13 12 12 12 11 11 10 9 7 7 6 6 6 6 6 6 7 7 7 7 8 9 9 9 9 9 9
10 10 11 11 12 12 13 13 14 14 15 15 15 15 14 13 13 12 12 11 11 10 9 7 6 6 6 6 6 6 6 6 6 6 6 6 7 8 8 8 9 9 9
12 12 13 14 14 15 15 15 15 15 15 15 15 15 14 14 13 12 11 11 9 8 7 6 6 6 6 6 6 6 6 6 6 5 5 6 7 7 8 8 8 8 9
14 15 15 16 16 16 16 16 16 16 16 16 16 15 15 15 14 14 13 11 9 8 7 6 6 6 6 6 6 6 5 5 5 5 5 6 6 7 7 8 8 8 8
16 16 16 16 16 16 16 16 17 17 17 17 17 17 16 16 16 16 14 13 10 9 8 7 6 6 5 5 6 6 5 5 5 5 5 5 6 6 7 7 7 7 7
16 16 16 16 16 16 16 16 17 18 18 18 18 18 18 17 17 16 15 13 11 10 9 8 7 6 5 5 5 5 5 5 5 4 5 5 6 6 6 7 7 7 7
16 16 16 16 16 16 16 16 17 17 17 17 18 18 18 17 16 15 14 13 11 10 9 8 6 5 5 4 4 5 5 5 4 4 4 5 5 6 6 7 7 7 6
17 17 17 17 17 17 17 17 17 16 17 17 18 18 17 17 16 15 14 13 11 10 9 8 6 5 4 4 4 4 4 4 4 4 4 5 5 5 6 6 7 7 6
17 17 17 18 18 18 18 18 17 17 17 17 17 17 16 16 15 15 14 13 11 10 9 8 6 5 4 4 4 4 4 4 4 4 4 4 5 5 6 6 6 6 6
18 18 18 18 18 18 18 17 17 17 17 16 16 16 16 15 15 15 14 13 12 11 10 8 7 5 5 4 4 4 4 4 4 4 4 4 5 5 6 6 6 6 6
18 18 19 19 18 18 18 17 17 16 16 16 16 16 16 15 15 15 14 13 12 12 11 9 8 7 6 5 4 4 4 4 3 4 4 4 5 5 6 6 6 6 6
19 19 19 18 18 18 17 17 16 16 15 15 15 15 16 15 15 15 14 14 13 13 12 11 9 8 7 6 5 4 4 3 4 4 3 4 4 5 6 6 6 6 6
19 19 18 18 17 17 17 16 16 15 15 15 15 15 15 15 15 15 14 14 14 13 13 12 10 9 8 7 6 5 4 4 4 3 3 3 4 4 5 5 5 5 6
19 18 18 17 17 16 16 16 15 15 15 15 16 16 15 15 15 15 14 14 14 14 13 12 11 9 7 7 6 5 4 4 4 3 3 3 3 4 4 5 5 5 5
18 18 17 17 16 16 15 15 15 15 15 16 16 16 16 15 15 15 15 15 14 14 13 12 11 9 7 6 6 5 5 4 4 3 3 3 3 3 4 4 4 5 5
18 17 17 16 16 16 15 15 15 15 16 16 16 16 16 15 15 15 15 15 14 14 13 12 11 9 8 7 6 6 5 5 4 4 3 3 3 3 3 4 4 4 5